When you browse on this site, cookies collect data to enhance your experience and personalize the content and advertising you see.
Visit our Privacy Policy to learn more. By continuing to use the site, you agree to this use of cookies and data.
  • In France
  • List of Countries
  • For 7 days
  • Water Temperature
  • Satellite Maps
  • Weather Map
  • Weather Widgets
  • user-avatar
    Login

    Hourly Weather Stara Zagora

    Today, 25 May, Saturday

    Time Temperature Precipitation Wind Pressure Humidity
    00:00 +13°C° 0 mm 2 mps 738 mmHg 86%
    01:00 +13°C° 0 mm 2 mps 738 mmHg 87%
    02:00 +12°C° 0 mm 1 mps 737 mmHg 88%
    03:00 +12°C° 0 mm 1 mps 738 mmHg 88%
    04:00 +12°C° 0 mm 1 mps 738 mmHg 88%
    05:00 +10°C° 0 mm 2 mps 738 mmHg 88%
    06:00 +14°C° 0 mm 2 mps 738 mmHg 82%
    07:00 +16°C° 0 mm 2 mps 739 mmHg 76%
    08:00 +18°C° 0 mm 2 mps 738 mmHg 69%
    09:00 +19°C° 0.3 mm 2 mps 739 mmHg 67%
    10:00 +20°C° 0.3 mm 2 mps 739 mmHg 64%
    11:00 +21°C° 0.3 mm 2 mps 739 mmHg 62%
    12:00 +21°C° 1.1 mm 2 mps 739 mmHg 60%
    13:00 +23°C° 1.1 mm 2 mps 739 mmHg 59%
    14:00 +24°C° 1.1 mm 2 mps 739 mmHg 58%
    15:00 +24°C° 0.8 mm 2 mps 739 mmHg 59%
    16:00 +24°C° 0.8 mm 2 mps 739 mmHg 60%
    17:00 +24°C° 0.8 mm 2 mps 739 mmHg 60%
    18:00 +21°C° 0.2 mm 2 mps 739 mmHg 67%
    19:00 +19°C° 0.2 mm 2 mps 739 mmHg 73%
    20:00 +18°C° 0.2 mm 1 mps 739 mmHg 79%
    21:00 +18°C° 0 mm 1 mps 740 mmHg 81%
    22:00 +16°C° 0 mm 1 mps 740 mmHg 83%
    23:00 +15°C° 0 mm 1 mps 741 mmHg 85%

    Tomorrow, 26 May, Sunday

    Time Temperature Precipitation Wind Pressure Humidity
    00:00 +15°C° 0 mm 1 mps 741 mmHg 85%
    01:00 +15°C° 0 mm 1 mps 741 mmHg 85%
    02:00 +14°C° 0 mm 1 mps 741 mmHg 86%
    03:00 +14°C° 0 mm 1 mps 741 mmHg 86%
    04:00 +14°C° 0 mm 1 mps 741 mmHg 86%
    05:00 +13°C° 0 mm 1 mps 741 mmHg 86%
    06:00 +16°C° 0 mm 1 mps 741 mmHg 79%
    07:00 +19°C° 0 mm 1 mps 742 mmHg 73%
    08:00 +21°C° 0 mm 1 mps 742 mmHg 66%
    09:00 +22°C° 0 mm 1 mps 742 mmHg 60%
    10:00 +24°C° 0 mm 1 mps 742 mmHg 55%
    11:00 +26°C° 0 mm 1 mps 742 mmHg 49%
    12:00 +26°C° 0 mm 1 mps 742 mmHg 47%
    13:00 +27°C° 0 mm 1 mps 742 mmHg 44%
    14:00 +28°C° 0 mm 2 mps 742 mmHg 42%
    15:00 +28°C° 0 mm 2 mps 742 mmHg 43%
    16:00 +28°C° 0 mm 2 mps 742 mmHg 45%
    17:00 +28°C° 0 mm 2 mps 741 mmHg 46%
    18:00 +25°C° 0 mm 2 mps 741 mmHg 54%
    19:00 +23°C° 0 mm 2 mps 741 mmHg 61%
    20:00 +21°C° 0 mm 1 mps 741 mmHg 69%
    21:00 +20°C° 0 mm 1 mps 742 mmHg 72%
    22:00 +19°C° 0 mm 1 mps 742 mmHg 75%
    23:00 +19°C° 0 mm 1 mps 742 mmHg 78%

    Day after tomorrow, 27 May, Monday

    Time Temperature Precipitation Wind Pressure Humidity
    00:00 +18°C° 0 mm 1 mps 742 mmHg 80%
    01:00 +18°C° 0 mm 1 mps 742 mmHg 81%
    02:00 +18°C° 0 mm 1 mps 742 mmHg 83%
    03:00 +16°C° 0 mm 1 mps 742 mmHg 84%
    04:00 +16°C° 0 mm 1 mps 742 mmHg 86%
    05:00 +15°C° 0 mm 1 mps 742 mmHg 88%
    06:00 +18°C° 0 mm 1 mps 742 mmHg 82%
    07:00 +20°C° 0 mm 1 mps 742 mmHg 76%
    08:00 +22°C° 0 mm 1 mps 742 mmHg 69%
    09:00 +23°C° 0 mm 2 mps 742 mmHg 64%
    10:00 +25°C° 0 mm 2 mps 742 mmHg 59%
    11:00 +26°C° 0 mm 3 mps 742 mmHg 54%
    12:00 +27°C° 0 mm 3 mps 742 mmHg 52%
    13:00 +28°C° 0 mm 4 mps 742 mmHg 50%
    14:00 +29°C° 0 mm 4 mps 742 mmHg 48%
    15:00 +29°C° 0 mm 4 mps 741 mmHg 48%
    16:00 +28°C° 0 mm 4 mps 741 mmHg 49%
    17:00 +28°C° 0 mm 4 mps 740 mmHg 49%
    18:00 +26°C° 0 mm 3 mps 740 mmHg 56%
    19:00 +24°C° 0 mm 3 mps 740 mmHg 63%
    20:00 +21°C° 0 mm 3 mps 740 mmHg 71%
    21:00 +19°C° 0 mm 3 mps 740 mmHg 76%
    22:00 +18°C° 0 mm 3 mps 741 mmHg 81%
    23:00 +17°C° 0 mm 3 mps 741 mmHg 86%

    28 May, Tuesday

    Time Temperature Precipitation Wind Pressure Humidity
    00:00 +16°C° 0 mm 2 mps 740 mmHg 85%
    01:00 +15°C° 0 mm 2 mps 740 mmHg 85%
    02:00 +15°C° 0 mm 2 mps 740 mmHg 85%
    03:00 +14°C° 0 mm 2 mps 740 mmHg 83%
    04:00 +14°C° 0 mm 2 mps 739 mmHg 81%
    05:00 +14°C° 0 mm 1 mps 739 mmHg 80%
    06:00 +16°C° 0 mm 2 mps 739 mmHg 74%
    07:00 +18°C° 0 mm 2 mps 739 mmHg 68%
    08:00 +20°C° 0 mm 2 mps 739 mmHg 62%
    09:00 +23°C° 0 mm 2 mps 739 mmHg 59%
    10:00 +24°C° 0 mm 3 mps 739 mmHg 56%
    11:00 +26°C° 0 mm 3 mps 738 mmHg 52%
    12:00 +28°C° 0 mm 4 mps 738 mmHg 48%
    13:00 +29°C° 0 mm 6 mps 737 mmHg 44%
    14:00 +32°C° 0 mm 7 mps 737 mmHg 39%
    15:00 +30°C° 0 mm 7 mps 737 mmHg 40%
    16:00 +29°C° 0 mm 7 mps 736 mmHg 40%
    17:00 +28°C° 0 mm 7 mps 736 mmHg 41%
    18:00 +26°C° 0 mm 6 mps 736 mmHg 47%
    19:00 +22°C° 0 mm 5 mps 736 mmHg 54%
    20:00 +20°C° 0 mm 4 mps 736 mmHg 60%
    21:00 +18°C° 0 mm 3 mps 736 mmHg 66%
    22:00 +17°C° 0 mm 2 mps 736 mmHg 72%
    23:00 +16°C° 0 mm 1 mps 736 mmHg 79%

    29 May, Wednesday

    Time Temperature Precipitation Wind Pressure Humidity
    00:00 +15°C° 0 mm 1 mps 736 mmHg 80%
    01:00 +15°C° 0 mm 1 mps 736 mmHg 82%
    02:00 +15°C° 0 mm 1 mps 736 mmHg 83%
    03:00 +15°C° 0 mm 1 mps 737 mmHg 83%
    04:00 +15°C° 0 mm 1 mps 737 mmHg 82%
    05:00 +15°C° 0 mm 1 mps 737 mmHg 82%
    06:00 +18°C° 0 mm 1 mps 737 mmHg 76%
    07:00 +20°C° 0 mm 1 mps 738 mmHg 70%
    08:00 +22°C° 0 mm 1 mps 738 mmHg 63%
    09:00 +24°C° 0 mm 1 mps 738 mmHg 59%
    10:00 +25°C° 0 mm 2 mps 738 mmHg 55%
    11:00 +27°C° 0 mm 2 mps 738 mmHg 51%
    12:00 +28°C° 0 mm 2 mps 738 mmHg 48%
    13:00 +29°C° 0 mm 2 mps 738 mmHg 45%
    14:00 +30°C° 0 mm 2 mps 738 mmHg 42%
    15:00 +30°C° 0 mm 2 mps 738 mmHg 43%
    16:00 +30°C° 0 mm 2 mps 738 mmHg 44%
    17:00 +30°C° 0 mm 2 mps 738 mmHg 45%
    18:00 +27°C° 0 mm 2 mps 738 mmHg 54%
    19:00 +25°C° 0 mm 1 mps 738 mmHg 64%
    20:00 +23°C° 0 mm 1 mps 738 mmHg 73%
    21:00 +22°C° 0.4 mm 1 mps 739 mmHg 77%
    22:00 +21°C° 0.4 mm 1 mps 739 mmHg 82%
    23:00 +20°C° 0.4 mm 1 mps 739 mmHg 86%

    30 May, Thursday

    Time Temperature Precipitation Wind Pressure Humidity
    00:00 +20°C° 0.3 mm 1 mps 740 mmHg 86%
    01:00 +19°C° 0.3 mm 1 mps 740 mmHg 86%
    02:00 +18°C° 0.3 mm 2 mps 740 mmHg 86%
    03:00 +18°C° 0 mm 2 mps 740 mmHg 85%
    04:00 +18°C° 0 mm 2 mps 740 mmHg 84%
    05:00 +17°C° 0 mm 2 mps 740 mmHg 83%
    06:00 +19°C° 0 mm 2 mps 741 mmHg 76%
    07:00 +21°C° 0 mm 2 mps 741 mmHg 68%
    08:00 +24°C° 0 mm 2 mps 741 mmHg 61%
    09:00 +25°C° 0 mm 2 mps 741 mmHg 56%
    10:00 +27°C° 0 mm 2 mps 741 mmHg 50%
    11:00 +28°C° 0 mm 2 mps 741 mmHg 45%
    12:00 +29°C° 0 mm 2 mps 741 mmHg 44%
    13:00 +29°C° 0 mm 2 mps 741 mmHg 44%
    14:00 +30°C° 0 mm 2 mps 741 mmHg 43%
    15:00 +29°C° 0.2 mm 2 mps 741 mmHg 49%
    16:00 +28°C° 0.2 mm 2 mps 741 mmHg 55%
    17:00 +26°C° 0.2 mm 2 mps 740 mmHg 61%
    18:00 +25°C° 1.9 mm 2 mps 740 mmHg 68%
    19:00 +23°C° 1.9 mm 2 mps 740 mmHg 75%
    20:00 +22°C° 1.9 mm 1 mps 740 mmHg 81%
    21:00 +20°C° 0.8 mm 2 mps 740 mmHg 84%
    22:00 +19°C° 0.8 mm 2 mps 740 mmHg 86%
    23:00 +18°C° 0.8 mm 2 mps 740 mmHg 88%
    Show more